Location: Gniazdowice
(50.2124°N, 20.2673°E)
Time: 00:11:37
(UTC+00:00)

CZ-2D R/B - Pass Details

Date: 23 May 2024
Orbit: 790 x 843 km, 98.8° (Epoch: 18 June)

Event Time Altitude Azimuth Distance (km) Brightness Sun altitude
Rises 00:09:28 0° 19° (NNE) 3,414 7.2 -16.2°
Reaches altitude 10° 00:11:59 10° 27° (NNE) 2,472 6.0 -16.0°
Maximum altitude 00:17:11 43° 98° (E) 1,171 3.1 -15.7°
Enters shadow 00:21:27 15° 165° (SSE) 2,128 3.9 -15.4°
